Powrót do katalogu

QIANFAN-184

AktywnyŁącznośćPO
NORAD 69402·PAYLOAD·🇨🇳 China

Wystrzelony Jun 5, 2026 z Wenchang Space Launch Site

Loading…

Następne Przeloty (najbliższe 24 godziny)

TLE

ŚwieżeSource: Space-Track

Epoka: Sep 14, 2026, 12:54 UTC

1 69402U 26125B   26257.53816621  .00000014  00000-0  37877-5 0  9993
2 69402  88.9883 270.9400 0001925  97.5707 262.5663 13.51028562 14009

Śledź QIANFAN-184 w czasie rzeczywistym z AllMySat

Download on the App Store